Wind_Speed
10 6 6 6 6 7 14 8 4 8 6 3 1 6 15 12 16 2 6 17 17 27 28 34 32 30 29 28 27 27 26 26 25 24 23 21 20 17 16 14 12 10 9 9 8 7 6 6 5
7 7 8 3 8 11 12 10 12 8 6 4 5 9 10 9 8 3 12 16 20 25 27 31 35 31 30 30 28 28 27 27 26 25 24 22 20 18 17 15 14 12 10 9 9 8 7 6 4
8 8 6 5 12 14 8 9 9 5 4 5 4 9 6 11 7 1 11 19 19 22 25 30 36 34 32 30 30 29 28 27 26 25 25 23 21 20 18 17 15 14 13 12 10 8 8 7 5
8 7 5 10 17 17 11 4 3 3 5 3 9 7 5 1 2 8 19 20 20 21 24 29 35 35 33 31 30 29 29 27 27 25 24 23 22 21 19 17 15 14 14 12 11 9 7 6 5
7 4 11 15 21 19 10 12 9 11 10 9 9 9 5 7 6 13 23 18 18 19 21 23 34 35 34 32 30 29 28 27 26 25 24 24 22 20 18 17 16 16 15 14 12 10 8 7 6
7 6 10 17 19 18 15 15 13 13 12 11 11 10 7 8 12 17 21 18 15 15 18 19 31 35 33 32 31 30 30 29 28 27 26 24 23 20 20 18 17 16 16 15 14 12 10 8 7
15 11 17 20 17 16 18 17 15 14 9 12 10 15 8 11 14 16 19 16 14 13 15 17 19 30 35 31 31 31 31 31 30 29 27 26 24 23 22 20 17 16 16 15 13 11 9 8 7
11 12 22 20 17 22 14 11 14 13 12 3 6 9 11 14 13 14 16 16 14 12 13 14 17 22 25 25 32 32 32 32 31 30 28 27 25 24 23 21 19 18 16 14 13 11 10 9 8
14 11 17 23 20 13 6 14 15 6 9 6 3 3 7 10 11 13 14 15 14 12 12 14 16 20 22 24 23 33 33 32 32 31 30 28 22 21 21 20 20 18 16 14 13 12 11 9 8
16 17 27 21 14 11 16 15 11 7 17 12 7 8 9 11 10 10 11 15 17 16 15 15 17 20 20 21 22 21 26 26 27 26 25 27 24 23 23 21 22 19 17 15 14 13 12 10 9
21 26 22 23 15 12 17 18 15 14 18 17 14 8 2 2 5 7 9 10 9 8 12 16 17 19 21 20 21 22 23 25 27 28 30 27 26 25 24 21 20 18 18 14 14 13 12 12 9
26 26 26 25 15 11 20 20 23 22 20 19 6 6 11 12 11 11 13 12 13 7 7 12 15 17 19 20 21 22 23 24 26 29 32 30 31 28 26 24 21 21 19 18 18 18 15 14 12
28 29 23 23 22 19 16 23 24 25 23 22 21 18 17 17 17 19 17 17 14 14 10 9 9 15 16 20 22 24 25 26 26 27 29 32 30 28 26 25 24 22 20 19 18 17 16 16 14
16 25 29 28 22 20 24 27 21 28 23 24 21 22 22 19 17 17 17 18 18 18 18 15 12 13 15 20 22 26 26 25 25 25 27 32 30 27 27 27 26 24 22 20 18 17 13 13 13
23 26 24 25 27 28 16 27 35 30 25 22 21 21 22 21 22 20 23 20 21 20 17 16 13 12 17 19 21 22 24 21 24 24 26 28 31 28 28 28 27 25 22 19 16 14 13 12 13
17 22 24 33 25 23 23 29 38 29 29 25 26 24 23 24 22 25 25 20 20 16 12 15 15 14 17 20 21 22 22 22 22 22 23 27 28 29 28 28 27 24 23 20 18 15 13 13 15
20 24 30 30 27 24 19 35 37 32 29 25 25 24 22 24 23 19 18 19 17 16 15 17 17 20 21 20 21 23 21 21 21 21 22 23 25 26 26 25 25 25 22 19 17 16 15 14 12
24 26 27 28 21 25 29 35 29 26 13 24 27 26 24 23 19 21 20 18 19 19 18 21 27 22 18 18 17 19 19 19 19 20 20 20 22 24 25 23 23 23 22 19 18 16 14 12 11
25 28 22 19 22 26 26 34 31 28 29 28 24 21 20 21 20 24 24 23 23 24 24 24 24 21 16 15 17 17 20 17 17 18 18 19 20 23 24 21 21 22 22 19 17 15 15 12 9
22 26 31 20 15 20 25 32 29 27 29 28 27 27 26 24 23 22 27 25 24 26 24 25 24 19 16 15 16 14 15 16 15 16 16 19 20 21 21 20 19 21 20 19 18 17 12 10 10
23 25 25 27 20 17 21 27 27 22 24 24 24 24 24 26 25 23 22 25 27 26 24 21 20 17 17 17 15 13 12 10 14 15 16 19 19 20 19 19 18 19 18 19 18 15 13 10 9
21 22 26 24 22 23 21 20 23 25 29 29 27 25 25 25 25 23 23 24 28 27 22 19 17 15 15 18 19 19 16 13 14 16 16 18 18 18 18 18 17 18 18 16 16 13 11 11 10
20 18 24 23 23 25 30 19 19 19 21 19 18 20 23 24 24 25 24 24 26 25 24 22 20 18 17 18 18 18 16 12 14 16 19 18 18 18 17 17 17 18 16 15 12 11 12 11 12
14 17 20 19 14 18 24 22 20 21 26 22 18 20 21 21 19 18 20 22 21 18 19 19 17 15 15 16 17 17 17 15 17 19 20 20 19 18 18 18 18 16 14 13 11 12 10 10 10
16 16 11 15 18 19 21 20 19 7 1 1 8 15 8 11 13 13 12 12 14 14 15 14 13 13 14 16 17 17 17 17 19 22 21 22 21 19 19 19 16 15 13 12 11 10 9 11 11
21 19 15 20 17 20 26 23 16 16 14 15 12 10 10 11 11 10 12 10 11 13 12 10 12 13 15 16 17 17 18 19 20 19 21 19 19 19 19 17 15 13 13 11 10 10 11 11 12
20 20 21 24 19 16 18 26 26 19 11 9 3 6 8 10 11 14 11 8 8 8 8 11 13 16 17 19 19 20 19 21 21 23 18 19 19 18 17 16 14 12 10 10 11 11 12 11 12
8 13 4 15 13 20 17 22 15 24 27 15 0 9 13 15 12 6 3 7 7 10 13 15 18 20 20 21 21 21 22 21 22 20 20 19 17 17 16 14 11 10 10 11 12 11 12 12 10
5 9 12 14 17 13 12 16 19 14 11 8 6 12 15 15 11 7 2 5 11 15 18 19 20 22 21 22 22 22 21 21 21 20 19 17 16 15 13 11 11 11 9 9 9 9 10 11 11
8 11 5 5 20 16 10 3 11 18 14 6 11 15 16 15 8 4 2 6 13 17 19 20 21 22 22 23 22 21 21 21 20 19 17 16 14 12 12 12 10 9 8 7 8 9 9 13 13
Wind_Direction
211 195 204 211 234 241 237 213 232 174 200 146 265 196 213 186 181 194 117 147 154 162 172 180 183 184 185 188 186 184 183 184 184 187 188 189 190 190 191 190 190 188 182 172 169 164 157 155 159
187 176 210 240 248 224 221 202 194 186 99 329 224 203 218 202 187 88 142 159 158 163 170 177 186 188 190 191 189 188 188 189 189 190 190 190 191 191 191 189 187 183 176 172 165 155 150 156 159
181 216 244 228 233 243 223 179 195 149 239 256 221 218 191 233 225 240 131 157 157 164 174 182 187 192 195 196 192 191 192 191 192 193 191 189 190 189 188 187 184 180 175 172 166 166 168 166 158
181 202 237 244 235 226 255 80 114 230 290 229 213 191 191 205 208 179 152 158 160 170 179 192 190 193 197 199 197 196 197 194 195 196 194 191 193 191 188 186 184 178 177 175 176 180 180 177 181
206 258 242 233 246 251 249 259 275 277 294 254 205 209 211 169 167 151 156 161 166 174 183 193 197 196 199 202 201 202 203 201 201 202 201 198 196 196 192 190 188 184 183 179 182 187 190 196 201
206 250 235 238 244 250 253 255 259 259 257 249 224 222 198 141 167 157 163 168 175 181 187 195 202 200 204 206 205 206 206 208 206 207 206 204 203 199 199 196 195 190 188 186 188 191 196 203 216
239 223 244 252 248 257 253 258 251 255 262 221 229 207 161 164 151 161 169 171 179 186 190 196 201 202 207 212 214 212 210 211 211 211 209 210 207 205 203 199 200 199 196 192 195 197 205 216 228
228 252 252 248 247 249 256 262 241 242 232 20 241 214 180 145 154 160 172 181 185 189 196 201 201 204 207 211 218 221 219 218 217 216 213 213 214 211 208 205 204 203 199 199 197 204 208 217 233
229 237 244 244 234 241 249 249 249 260 259 205 164 43 67 151 152 164 178 191 196 203 206 206 207 206 209 214 220 224 225 225 224 222 218 215 210 215 214 210 213 207 203 203 204 207 214 223 235
216 226 238 244 249 233 238 240 247 244 223 220 180 128 95 139 162 176 194 202 207 213 216 220 214 213 211 213 219 220 221 221 220 217 215 211 211 213 212 214 211 215 206 205 209 212 217 224 239
225 241 240 246 243 246 251 252 247 241 244 214 199 169 148 213 207 226 240 224 223 227 242 225 221 217 215 218 216 222 223 222 222 217 213 212 211 214 212 212 214 210 212 211 214 220 221 230 239
240 243 241 256 254 245 247 257 254 247 245 246 255 231 283 281 272 261 270 276 280 285 254 218 220 220 220 220 223 224 224 223 221 220 214 209 206 209 208 208 208 207 209 210 213 211 215 222 228
236 244 248 244 251 247 254 251 250 246 245 248 251 253 254 260 264 273 273 272 274 275 254 232 232 225 223 223 228 229 229 226 226 221 218 213 214 211 209 208 205 209 209 212 216 228 217 219 226
245 247 249 254 247 246 245 252 256 246 247 254 256 256 256 255 255 251 255 261 269 267 262 262 253 232 231 231 230 231 231 230 228 227 222 217 215 212 210 209 209 210 210 213 218 225 222 233 241
257 263 259 250 240 241 254 260 248 251 251 252 255 257 258 257 257 257 262 259 259 257 261 265 266 242 241 242 242 239 238 235 229 226 224 221 214 213 209 212 214 213 211 212 216 218 218 228 243
253 250 249 240 232 237 227 257 252 239 243 240 254 254 260 264 263 263 260 257 250 249 257 262 258 254 254 250 247 243 241 234 235 224 221 220 216 211 210 214 217 214 210 211 212 213 215 233 239
238 247 238 252 236 230 217 242 252 260 258 247 244 254 255 260 263 261 257 252 253 267 261 257 261 268 264 252 247 242 240 231 227 223 218 216 212 210 210 214 217 211 211 209 208 215 227 233 242
237 238 245 258 248 226 223 243 245 256 254 250 253 250 254 250 252 255 256 269 269 263 253 258 268 262 252 250 243 235 230 226 220 218 215 208 206 205 207 211 213 207 209 205 207 216 222 230 243
265 268 264 273 261 256 238 241 248 246 252 256 258 253 255 258 267 273 275 270 266 264 257 252 253 252 237 231 225 224 219 215 214 210 206 200 199 201 204 208 204 204 208 201 203 213 216 228 235
260 257 259 257 287 246 246 250 251 247 250 250 252 255 260 266 266 268 267 264 262 261 257 254 250 243 233 229 224 220 215 208 204 200 194 194 197 198 199 199 197 198 197 197 198 205 211 220 220
254 254 256 253 261 239 251 252 251 249 255 255 258 260 261 262 265 266 266 263 261 256 254 253 252 234 231 221 212 202 180 175 183 190 187 189 191 190 189 191 188 190 190 193 193 200 210 227 225
264 249 255 254 250 244 231 254 243 242 244 243 246 247 251 256 257 260 261 258 256 258 255 252 240 229 225 210 206 197 187 183 195 180 175 174 175 176 178 180 184 183 186 179 188 203 217 226 230
261 270 249 243 246 245 244 258 258 256 256 255 251 254 254 255 258 258 258 259 259 257 253 245 244 242 229 211 205 192 202 182 168 164 159 159 162 166 170 173 175 175 179 176 185 199 215 227 247
260 273 256 240 255 249 237 236 253 252 254 253 251 254 251 256 268 268 263 256 248 249 242 238 234 223 204 196 191 188 184 168 160 149 149 151 154 161 164 167 171 173 178 184 197 211 217 226 225
238 238 246 227 231 239 240 231 240 266 313 221 293 265 229 267 269 264 260 238 229 230 223 219 214 201 189 183 177 175 170 164 159 155 154 151 152 159 165 170 170 175 179 190 200 202 205 209 216
229 233 241 242 233 234 225 239 225 232 264 266 255 260 271 270 277 271 276 249 236 217 214 211 202 180 170 164 159 157 155 152 150 149 145 145 154 157 160 167 170 176 185 196 197 196 204 206 211
235 249 261 263 268 276 228 216 249 247 243 233 239 338 333 318 303 293 271 217 206 180 179 184 161 152 150 146 141 143 143 145 136 136 138 146 145 146 156 164 170 180 192 195 193 205 208 209 208
292 248 319 249 257 250 239 212 220 213 228 247 272 2 356 351 332 327 239 179 139 153 146 139 140 139 136 134 135 133 130 130 131 133 138 141 141 150 157 166 175 187 188 193 203 210 212 208 203
272 242 243 247 243 265 227 217 210 214 122 111 33 11 360 6 347 4 8 114 152 140 135 134 132 130 131 132 128 127 126 128 133 136 139 140 144 152 159 169 173 177 186 202 218 226 220 213 195
172 227 228 250 224 250 298 34 122 113 115 71 12 13 357 18 6 353 113 156 151 137 135 133 131 131 131 128 125 125 129 133 136 137 140 145 148 151 157 162 168 177 195 207 222 229 226 195 193
Height
789 791 792 787 792 776 764 754 739 746 747 733 732 735 733 723 738 754 733 737 740 745 750 754 758 763 767 771 773 775 776 779 781 784 787 789 790 792 793 795 798 799 800 801 802 803 803 804 804
791 791 789 774 787 776 757 737 748 736 732 733 733 734 733 738 716 725 732 737 741 744 749 753 756 760 765 769 772 775 776 779 780 782 785 787 789 791 793 794 795 797 800 801 802 803 803 805 805
789 789 777 774 771 769 748 737 733 733 730 733 737 730 731 734 724 727 730 736 742 745 749 752 752 756 761 766 770 773 776 778 780 782 783 785 788 789 791 792 794 795 797 800 801 802 803 804 804
787 784 776 780 766 752 742 740 735 737 728 727 730 740 727 725 724 726 732 736 740 745 748 750 751 754 759 763 767 772 775 777 779 782 783 784 787 788 789 791 793 794 797 798 800 802 803 804 804
784 775 778 773 764 747 741 740 742 743 735 729 726 732 727 724 727 728 732 737 740 745 748 751 751 753 758 763 766 771 775 777 778 781 783 784 786 788 789 791 793 793 795 796 799 801 802 804 804
778 771 781 776 764 749 740 734 737 737 731 727 729 725 722 722 726 728 732 736 741 744 748 751 750 753 758 762 765 769 771 775 777 780 782 784 786 788 790 791 792 793 794 795 797 799 800 802 802
775 770 767 758 755 755 743 730 736 733 727 725 716 729 717 720 724 729 732 735 739 743 746 751 752 753 757 760 763 766 768 772 775 778 780 783 786 787 789 789 792 793 795 795 798 799 800 801 801
767 763 763 751 757 755 739 735 725 726 725 717 718 725 726 717 726 729 732 735 738 742 745 748 751 753 757 759 761 764 766 769 773 776 778 782 785 786 788 788 790 792 795 796 797 798 799 800 801
765 770 759 748 749 751 741 741 723 719 721 721 717 714 719 723 725 728 731 734 736 740 743 746 749 751 754 758 760 760 765 767 770 773 776 778 783 786 788 789 790 792 793 795 796 797 799 799 799
763 757 743 729 730 747 741 736 727 730 726 724 723 724 724 724 726 725 727 729 730 733 738 743 746 748 751 753 757 759 763 764 767 771 774 776 779 782 784 786 788 790 791 792 793 795 796 797 797
752 746 731 728 730 739 741 732 723 731 730 716 722 722 724 726 727 728 727 726 727 729 732 737 742 744 747 749 751 755 757 759 762 764 767 769 773 777 780 783 785 788 789 791 791 793 794 794 793
754 736 736 729 731 745 745 733 728 724 722 712 718 721 725 726 726 727 726 726 726 727 730 734 737 739 742 745 747 748 749 752 754 756 759 762 765 769 772 776 779 782 784 786 786 785 786 788 788
741 736 731 730 734 736 738 736 728 719 714 713 715 720 724 724 725 726 727 726 727 727 728 730 732 734 736 738 741 741 742 744 747 750 753 756 759 763 769 771 773 776 778 780 782 785 782 783 784
733 734 732 729 729 733 738 728 729 710 712 711 715 717 715 716 719 723 723 723 724 723 723 724 727 729 730 731 732 733 735 737 741 744 746 749 754 757 761 766 768 769 772 775 778 780 781 783 783
741 744 735 725 724 728 732 733 721 708 708 709 709 709 709 710 713 714 716 717 719 719 718 719 721 722 723 724 726 729 730 731 733 734 740 743 747 751 755 758 761 764 768 772 774 777 778 780 780
750 743 740 710 721 720 735 733 694 699 700 707 704 702 702 700 703 706 708 710 714 714 714 717 717 718 718 718 720 722 723 724 726 727 731 737 741 745 748 752 756 759 762 765 770 772 773 774 776
738 732 718 714 704 715 729 719 697 696 691 694 695 693 694 693 693 697 704 707 709 707 709 711 713 713 713 712 713 714 716 717 719 722 725 729 735 739 744 747 749 754 758 761 764 768 768 769 773
727 722 718 715 702 705 713 703 701 691 687 687 687 687 687 686 690 695 697 698 701 703 704 705 706 706 707 707 708 708 709 711 713 716 720 724 729 735 738 740 744 749 752 756 759 762 764 767 769
728 719 710 705 702 706 701 697 695 693 690 687 686 685 684 682 684 687 689 692 694 697 698 697 699 699 700 701 701 701 701 705 708 711 716 720 725 729 732 735 739 743 747 751 756 759 761 764 767
732 731 721 713 713 703 701 692 689 688 681 680 681 683 680 679 680 680 683 684 686 690 690 690 691 693 693 694 695 695 696 698 702 707 712 716 721 724 726 730 734 739 743 747 751 755 758 761 764
738 733 726 721 712 706 707 700 690 679 677 675 675 678 678 677 675 674 675 676 678 681 682 682 684 685 685 687 690 691 693 696 699 705 708 712 716 719 723 727 731 736 739 744 748 752 755 756 760
734 724 724 722 723 716 703 705 685 677 674 671 668 670 669 668 665 664 666 667 669 670 672 674 676 677 680 681 683 684 685 689 694 699 704 708 712 716 721 725 729 733 736 741 745 749 751 754 756
725 719 718 716 713 713 705 705 677 670 670 664 660 660 659 659 655 653 653 654 656 660 663 666 668 669 671 674 676 679 682 685 691 696 701 706 710 715 720 723 728 732 735 739 742 746 749 751 751
719 722 720 717 720 710 693 694 678 672 660 656 650 648 649 648 645 643 645 648 649 652 656 659 660 661 664 668 671 675 678 681 687 693 699 704 709 714 719 723 727 731 734 737 740 743 746 748 749
720 726 733 728 716 711 689 690 676 655 647 648 653 648 643 642 640 639 637 637 641 645 649 652 654 656 660 665 668 673 677 681 686 691 694 700 707 712 718 722 727 730 733 735 739 741 743 746 747
718 721 719 720 701 690 684 685 666 655 650 644 644 645 642 639 633 633 631 634 635 639 644 648 651 654 658 663 667 672 677 679 685 688 694 699 705 711 718 722 726 729 732 734 736 738 740 742 744
717 726 708 707 693 685 660 667 662 648 649 647 643 642 640 637 633 631 628 629 632 637 644 646 648 653 658 663 667 673 675 679 684 690 696 701 706 712 718 722 725 728 730 732 734 734 737 739 741
713 711 742 705 718 691 660 655 659 641 652 644 644 647 642 636 631 628 629 630 635 642 642 646 650 655 660 664 669 673 677 683 687 692 697 703 708 713 718 721 724 726 728 730 732 732 734 737 740
720 724 724 713 691 682 658 646 629 632 635 648 649 646 640 635 637 635 636 639 642 640 644 648 652 656 662 667 671 675 680 685 690 696 701 705 710 714 717 720 723 725 727 729 730 731 732 734 737
727 734 736 724 702 675 678 649 628 638 647 653 651 643 638 634 646 645 644 644 637 641 646 650 654 659 665 668 673 679 684 689 694 698 702 707 710 714 717 719 722 724 725 727 727 728 729 731 734